Time,TemperatureF,DewpointF,PressureIn,WindDirection,WindDirectionDegrees,WindSpeedMPH,WindSpeedGustMPH,Humidity,HourlyPrecipIn,Conditions,Clouds,dailyrainin,SoftwareType,DateUTC
2013-07-20 00:01:00,80.4,73.3,30.09,SSW,193,12.0,16.0,79,0.00,,SKC,0.00,VWS V13.00,2013-07-20 04:01:00,
2013-07-20 00:06:00,80.3,73.2,30.09,SW,235,9.0,19.0,79,0.00,,SKC,0.00,VWS V13.00,2013-07-20 04:06:00,
2013-07-20 00:11:00,80.3,73.2,30.09,WSW,247,13.0,15.0,79,0.00,,SKC,0.00,VWS V13.00,2013-07-20 04:11:00,
2013-07-20 00:16:00,80.2,73.1,30.09,SSW,192,6.0,15.0,79,0.00,,SKC,0.00,VWS V13.00,2013-07-20 04:16:00,
2013-07-20 00:21:00,80.2,73.1,30.09,WSW,239,4.0,16.0,79,0.00,,SKC,0.00,VWS V13.00,2013-07-20 04:21:00,
2013-07-20 00:26:00,80.2,73.1,30.09,SSW,212,5.0,16.0,79,0.00,,SKC,0.00,VWS V13.00,2013-07-20 04:26:00,
2013-07-20 00:31:00,80.1,73.0,30.09,SSW,213,14.0,20.0,79,0.00,,SKC,0.00,VWS V13.00,2013-07-20 04:31:00,
2013-07-20 00:36:00,80.1,73.0,30.10,South,185,7.0,22.0,79,0.00,,SKC,0.00,VWS V13.00,2013-07-20 04:36:00,
2013-07-20 00:41:00,80.1,73.0,30.09,SSW,209,7.0,17.0,79,0.00,,SKC,0.00,VWS V13.00,2013-07-20 04:41:00,
2013-07-20 00:46:00,80.2,73.1,30.09,SSW,202,9.0,23.0,79,0.00,,SKC,0.00,VWS V13.00,2013-07-20 04:46:00,
2013-07-20 00:51:00,80.2,73.1,30.09,SW,215,8.0,14.0,79,0.00,,SKC,0.00,VWS V13.00,2013-07-20 04:51:00,
2013-07-20 00:56:00,80.2,73.1,30.09,SSW,213,4.0,16.0,79,0.00,,SKC,0.00,VWS V13.00,2013-07-20 04:56:00,
2013-07-20 01:01:00,80.2,73.1,30.09,SW,232,10.0,22.0,79,0.00,,SKC,0.00,VWS V13.00,2013-07-20 05:01:00,
2013-07-20 01:06:00,80.2,73.1,30.08,SSW,206,8.0,19.0,79,0.00,,SKC,0.00,VWS V13.00,2013-07-20 05:06:00,
2013-07-20 01:11:00,80.2,73.1,30.09,SW,225,10.0,17.0,79,0.00,,SKC,0.00,VWS V13.00,2013-07-20 05:11:00,
2013-07-20 01:16:00,80.3,73.2,30.09,SW,219,11.0,18.0,79,0.00,,SKC,0.00,VWS V13.00,2013-07-20 05:16:00,
2013-07-20 01:21:00,80.2,73.1,30.08,SW,217,5.0,22.0,79,0.00,,SKC,0.00,VWS V13.00,2013-07-20 05:21:00,
2013-07-20 01:26:00,80.2,73.1,30.08,SW,232,8.0,21.0,79,0.00,,SKC,0.00,VWS V13.00,2013-07-20 05:26:00,
2013-07-20 01:31:00,80.3,73.2,30.08,SSW,200,16.0,19.0,79,0.00,,SKC,0.00,VWS V13.00,2013-07-20 05:31:00,
2013-07-20 01:36:00,80.3,73.2,30.08,SW,225,7.0,19.0,79,0.00,,SKC,0.00,VWS V13.00,2013-07-20 05:36:00,
2013-07-20 01:41:00,80.3,73.2,30.08,SSW,209,15.0,17.0,79,0.00,,SKC,0.00,VWS V13.00,2013-07-20 05:41:00,
2013-07-20 01:46:00,80.3,73.2,30.08,South,177,9.0,17.0,79,0.00,,SKC,0.00,VWS V13.00,2013-07-20 05:46:00,
2013-07-20 01:51:00,80.3,73.2,30.08,SSW,205,8.0,18.0,79,0.00,,SKC,0.00,VWS V13.00,2013-07-20 05:51:00,
2013-07-20 01:56:00,80.3,73.2,30.08,SW,221,13.0,20.0,79,0.00,,SKC,0.00,VWS V13.00,2013-07-20 05:56:00,
2013-07-20 02:01:00,80.3,73.2,30.08,SSW,209,4.0,18.0,79,0.00,,SKC,0.00,VWS V13.00,2013-07-20 06:01:00,
2013-07-20 02:06:00,80.3,73.2,30.07,SW,223,11.0,22.0,79,0.00,,SKC,0.00,VWS V13.00,2013-07-20 06:06:00,
2013-07-20 02:11:00,80.3,73.2,30.07,South,185,6.0,20.0,79,0.00,,SKC,0.00,VWS V13.00,2013-07-20 06:11:00,
2013-07-20 02:16:00,80.4,73.3,30.07,SW,221,13.0,19.0,79,0.00,,SKC,0.00,VWS V13.00,2013-07-20 06:16:00,
2013-07-20 02:21:00,80.4,73.3,30.07,SW,219,9.0,19.0,79,0.00,,SKC,0.00,VWS V13.00,2013-07-20 06:21:00,
2013-07-20 02:26:00,80.5,73.4,30.07,SSW,194,12.0,18.0,79,0.00,,SKC,0.00,VWS V13.00,2013-07-20 06:26:00,
2013-07-20 02:31:00,80.6,73.5,30.07,SW,220,11.0,22.0,79,0.00,,SKC,0.00,VWS V13.00,2013-07-20 06:31:00,
2013-07-20 02:36:00,80.6,73.5,30.07,SW,220,13.0,21.0,79,0.00,,SKC,0.00,VWS V13.00,2013-07-20 06:36:00,
2013-07-20 02:41:00,80.5,73.4,30.07,WSW,248,7.0,17.0,79,0.00,,SKC,0.00,VWS V13.00,2013-07-20 06:41:00,
2013-07-20 02:46:00,80.6,73.5,30.06,SW,227,14.0,19.0,79,0.00,,SKC,0.00,VWS V13.00,2013-07-20 06:46:00,
2013-07-20 02:51:00,80.5,73.4,30.06,SW,227,10.0,22.0,79,0.00,,SKC,0.00,VWS V13.00,2013-07-20 06:51:00,
2013-07-20 02:56:00,80.5,73.4,30.06,SW,236,14.0,17.0,79,0.00,,SKC,0.00,VWS V13.00,2013-07-20 06:56:00,
2013-07-20 03:01:00,80.4,73.3,30.06,WSW,249,6.0,17.0,79,0.00,,SKC,0.00,VWS V13.00,2013-07-20 07:01:00,
2013-07-20 03:06:00,80.3,73.2,30.06,SW,229,7.0,16.0,79,0.00,,SKC,0.00,VWS V13.00,2013-07-20 07:06:00,
2013-07-20 03:11:00,80.3,73.2,30.06,SW,221,10.0,20.0,79,0.00,,SKC,0.00,VWS V13.00,2013-07-20 07:11:00,
2013-07-20 03:16:00,80.3,73.2,30.06,WSW,257,12.0,17.0,79,0.00,,SKC,0.00,VWS V13.00,2013-07-20 07:16:00,
2013-07-20 03:21:00,80.3,73.2,30.06,SW,215,5.0,14.0,79,0.00,,SKC,0.00,VWS V13.00,2013-07-20 07:21:00,
2013-07-20 03:26:00,80.5,73.4,30.06,SW,219,11.0,19.0,79,0.00,,SKC,0.00,VWS V13.00,2013-07-20 07:26:00,
2013-07-20 03:31:00,80.5,73.4,30.06,SW,226,6.0,19.0,79,0.00,,SKC,0.00,VWS V13.00,2013-07-20 07:31:00,
2013-07-20 03:36:00,80.5,73.4,30.06,SW,218,10.0,19.0,79,0.00,,SKC,0.00,VWS V13.00,2013-07-20 07:36:00,
2013-07-20 03:41:00,80.5,73.4,30.06,SW,219,13.0,18.0,79,0.00,,SKC,0.00,VWS V13.00,2013-07-20 07:41:00,
2013-07-20 03:46:00,80.5,73.4,30.06,SSW,203,8.0,23.0,79,0.00,,SKC,0.00,VWS V13.00,2013-07-20 07:46:00,
2013-07-20 03:51:00,80.4,73.3,30.06,WSW,253,6.0,20.0,79,0.00,,SKC,0.00,VWS V13.00,2013-07-20 07:51:00,
2013-07-20 03:56:00,80.3,73.2,30.06,SW,227,7.0,23.0,79,0.00,,SKC,0.00,VWS V13.00,2013-07-20 07:56:00,
2013-07-20 04:01:00,80.4,73.3,30.06,West,271,11.0,16.0,79,0.00,,SKC,0.00,VWS V13.00,2013-07-20 08:01:00,
2013-07-20 04:06:00,80.3,73.2,30.06,WSW,245,13.0,22.0,79,0.00,,SKC,0.00,VWS V13.00,2013-07-20 08:06:00,
2013-07-20 04:11:00,80.1,73.0,30.06,West,259,9.0,18.0,79,0.00,,SKC,0.00,VWS V13.00,2013-07-20 08:11:00,
2013-07-20 04:16:00,79.9,72.8,30.06,West,259,12.0,21.0,79,0.00,,SKC,0.00,VWS V13.00,2013-07-20 08:16:00,
2013-07-20 04:21:00,79.8,72.7,30.06,WSW,258,10.0,18.0,79,0.00,,SKC,0.00,VWS V13.00,2013-07-20 08:21:00,
2013-07-20 04:26:00,79.8,72.7,30.06,SW,225,9.0,19.0,79,0.00,,SKC,0.00,VWS V13.00,2013-07-20 08:26:00,
2013-07-20 04:31:00,79.5,72.4,30.06,West,270,6.0,18.0,79,0.00,,SKC,0.00,VWS V13.00,2013-07-20 08:31:00,
2013-07-20 04:36:00,79.4,72.3,30.07,West,270,15.0,18.0,79,0.00,,SKC,0.00,VWS V13.00,2013-07-20 08:36:00,
2013-07-20 04:41:00,79.4,72.3,30.07,SSW,201,10.0,17.0,79,0.00,,SKC,0.00,VWS V13.00,2013-07-20 08:41:00,
2013-07-20 04:46:00,79.6,72.5,30.07,SW,226,9.0,21.0,79,0.00,,SKC,0.00,VWS V13.00,2013-07-20 08:46:00,
2013-07-20 04:51:00,79.6,72.5,30.07,SW,230,14.0,24.0,79,0.00,,SKC,0.00,VWS V13.00,2013-07-20 08:51:00,
2013-07-20 04:56:00,79.6,72.5,30.07,SW,230,16.0,22.0,79,0.00,,SKC,0.00,VWS V13.00,2013-07-20 08:56:00,
2013-07-20 05:01:00,79.6,72.5,30.07,NW,324,8.0,17.0,79,0.00,,SKC,0.00,VWS V13.00,2013-07-20 09:01:00,
2013-07-20 05:06:00,79.4,72.3,30.07,SW,218,9.0,22.0,79,0.00,,SKC,0.00,VWS V13.00,2013-07-20 09:06:00,
2013-07-20 05:11:00,79.4,72.7,30.07,WSW,245,12.0,20.0,80,0.00,,SKC,0.00,VWS V13.00,2013-07-20 09:11:00,
2013-07-20 05:16:00,79.4,72.7,30.06,SW,227,20.0,20.0,80,0.00,,SKC,0.00,VWS V13.00,2013-07-20 09:16:00,
2013-07-20 05:21:00,79.4,72.7,30.06,WSW,246,15.0,18.0,80,0.00,,SKC,0.00,VWS V13.00,2013-07-20 09:21:00,
2013-07-20 05:26:00,79.3,72.6,30.07,WNW,287,5.0,20.0,80,0.00,,SKC,0.00,VWS V13.00,2013-07-20 09:26:00,
2013-07-20 05:31:00,79.0,72.3,30.07,SW,235,18.0,20.0,80,0.00,,SKC,0.00,VWS V13.00,2013-07-20 09:31:00,
2013-07-20 05:36:00,79.0,72.3,30.07,WSW,240,13.0,21.0,80,0.00,,SKC,0.00,VWS V13.00,2013-07-20 09:36:00,
2013-07-20 05:41:00,79.1,72.4,30.07,WSW,250,15.0,19.0,80,0.00,,SKC,0.00,VWS V13.00,2013-07-20 09:41:00,
2013-07-20 05:46:00,79.2,72.5,30.07,West,279,10.0,18.0,80,0.00,,SKC,0.00,VWS V13.00,2013-07-20 09:46:00,
2013-07-20 05:51:00,79.3,72.6,30.08,SW,236,10.0,16.0,80,0.00,,SKC,0.00,VWS V13.00,2013-07-20 09:51:00,
2013-07-20 05:56:00,79.5,72.8,30.08,SW,234,12.0,16.0,80,0.00,,SKC,0.00,VWS V13.00,2013-07-20 09:56:00,
2013-07-20 06:01:00,79.5,72.8,30.08,WSW,242,14.0,17.0,80,0.00,,SKC,0.00,VWS V13.00,2013-07-20 10:01:00,
2013-07-20 06:06:00,79.2,72.5,30.08,WSW,240,6.0,19.0,80,0.00,,SKC,0.00,VWS V13.00,2013-07-20 10:06:00,
2013-07-20 06:11:00,79.1,72.4,30.07,WNW,284,15.0,17.0,80,0.00,,SKC,0.00,VWS V13.00,2013-07-20 10:11:00,
2013-07-20 06:16:00,79.0,72.3,30.07,SW,216,9.0,13.0,80,0.00,,SKC,0.00,VWS V13.00,2013-07-20 10:16:00,
2013-07-20 06:21:00,79.0,72.3,30.07,West,261,7.0,18.0,80,0.00,,SKC,0.00,VWS V13.00,2013-07-20 10:21:00,
2013-07-20 06:26:00,79.0,72.3,30.07,SW,236,6.0,15.0,80,0.00,,SKC,0.00,VWS V13.00,2013-07-20 10:26:00,
2013-07-20 06:31:00,79.0,72.3,30.07,WSW,256,6.0,16.0,80,0.00,,SKC,0.00,VWS V13.00,2013-07-20 10:31:00,
2013-07-20 06:36:00,79.1,72.4,30.07,WSW,239,13.0,14.0,80,0.00,,SKC,0.00,VWS V13.00,2013-07-20 10:36:00,
2013-07-20 06:41:00,79.1,72.4,30.07,WSW,237,7.0,15.0,80,0.00,,SKC,0.00,VWS V13.00,2013-07-20 10:41:00,
2013-07-20 06:46:00,79.0,72.3,30.07,WSW,256,13.0,19.0,80,0.00,,SKC,0.00,VWS V13.00,2013-07-20 10:46:00,
2013-07-20 06:51:00,78.7,72.0,30.07,West,263,10.0,21.0,80,0.00,,SKC,0.00,VWS V13.00,2013-07-20 10:51:00,
2013-07-20 06:56:00,78.7,72.0,30.06,SSW,210,11.0,22.0,80,0.00,,SKC,0.00,VWS V13.00,2013-07-20 10:56:00,
2013-07-20 07:01:00,78.7,72.0,30.06,WSW,257,9.0,13.0,80,0.00,,SKC,0.00,VWS V13.00,2013-07-20 11:01:00,
2013-07-20 07:06:00,78.7,72.0,30.07,SW,231,7.0,13.0,80,0.00,,SKC,0.00,VWS V13.00,2013-07-20 11:06:00,
2013-07-20 07:11:00,78.7,72.0,30.07,SW,224,7.0,15.0,80,0.00,,SKC,0.00,VWS V13.00,2013-07-20 11:11:00,
2013-07-20 07:16:00,78.9,72.2,30.07,SW,218,5.0,10.0,80,0.00,,SKC,0.00,VWS V13.00,2013-07-20 11:16:00,
2013-07-20 07:21:00,78.9,72.2,30.07,West,262,3.0,12.0,80,0.00,,SKC,0.00,VWS V13.00,2013-07-20 11:21:00,
2013-07-20 07:26:00,78.9,72.2,30.07,SW,219,7.0,13.0,80,0.00,,SKC,0.00,VWS V13.00,2013-07-20 11:26:00,
2013-07-20 07:31:00,78.9,72.2,30.07,West,268,7.0,15.0,80,0.00,,SKC,0.00,VWS V13.00,2013-07-20 11:31:00,
2013-07-20 07:36:00,78.9,72.2,30.07,SSW,201,9.0,14.0,80,0.00,,SKC,0.00,VWS V13.00,2013-07-20 11:36:00,
2013-07-20 07:41:00,78.9,72.2,30.07,WSW,248,6.0,15.0,80,0.00,,SKC,0.00,VWS V13.00,2013-07-20 11:41:00,
2013-07-20 07:46:00,79.0,72.3,30.08,WSW,246,3.0,9.0,80,0.00,,SKC,0.00,VWS V13.00,2013-07-20 11:46:00,
2013-07-20 07:51:00,79.1,72.4,30.08,West,278,7.0,15.0,80,0.00,,SKC,0.00,VWS V13.00,2013-07-20 11:51:00,
2013-07-20 07:56:00,79.2,72.5,30.08,WSW,248,9.0,14.0,80,0.00,,SKC,0.00,VWS V13.00,2013-07-20 11:56:00,
2013-07-20 08:01:00,79.2,72.5,30.09,SW,234,10.0,13.0,80,0.00,,SKC,0.00,VWS V13.00,2013-07-20 12:01:00,
2013-07-20 08:07:00,79.4,72.7,30.08,WNW,294,11.0,15.0,80,0.00,,SKC,0.00,VWS V13.00,2013-07-20 12:07:00,
2013-07-20 08:12:00,79.5,72.8,30.09,West,272,7.0,14.0,80,0.00,,SKC,0.00,VWS V13.00,2013-07-20 12:12:00,
2013-07-20 08:17:00,79.6,72.9,30.09,WSW,257,4.0,10.0,80,0.00,,SKC,0.00,VWS V13.00,2013-07-20 12:17:00,
2013-07-20 08:22:00,79.8,73.1,30.09,South,182,7.0,15.0,80,0.00,,SKC,0.00,VWS V13.00,2013-07-20 12:22:00,
2013-07-20 08:27:00,79.8,72.7,30.09,SW,225,6.0,13.0,79,0.00,,SKC,0.00,VWS V13.00,2013-07-20 12:27:00,
2013-07-20 08:32:00,80.0,72.9,30.09,West,259,8.0,10.0,79,0.00,,SKC,0.00,VWS V13.00,2013-07-20 12:32:00,
2013-07-20 08:37:00,80.1,73.0,30.09,SW,231,9.0,15.0,79,0.00,,SKC,0.00,VWS V13.00,2013-07-20 12:37:00,
2013-07-20 08:42:00,80.1,73.0,30.09,WSW,249,10.0,16.0,79,0.00,,SKC,0.00,VWS V13.00,2013-07-20 12:42:00,
2013-07-20 08:47:00,80.2,73.1,30.09,SW,235,8.0,15.0,79,0.00,,SKC,0.00,VWS V13.00,2013-07-20 12:47:00,
2013-07-20 08:52:00,80.3,73.2,30.09,WSW,249,10.0,14.0,79,0.00,,SKC,0.00,VWS V13.00,2013-07-20 12:52:00,
2013-07-20 08:57:00,80.4,73.3,30.09,SW,215,5.0,15.0,79,0.00,,SKC,0.00,VWS V13.00,2013-07-20 12:57:00,
2013-07-20 09:02:00,80.7,73.6,30.09,SW,223,10.0,12.0,79,0.00,,SKC,0.00,VWS V13.00,2013-07-20 13:02:00,
2013-07-20 09:07:00,80.9,73.8,30.09,West,269,12.0,14.0,79,0.00,,SKC,0.00,VWS V13.00,2013-07-20 13:07:00,
2013-07-20 09:12:00,81.1,74.0,30.09,SW,219,5.0,17.0,79,0.00,,SKC,0.00,VWS V13.00,2013-07-20 13:12:00,
2013-07-20 09:17:00,81.5,74.4,30.09,SW,221,4.0,14.0,79,0.00,,SKC,0.00,VWS V13.00,2013-07-20 13:17:00,
2013-07-20 09:22:00,81.9,74.8,30.09,SSW,205,5.0,14.0,79,0.00,,SKC,0.00,VWS V13.00,2013-07-20 13:22:00,
2013-07-20 09:27:00,82.0,74.8,30.09,SSW,213,11.0,15.0,79,0.00,,SKC,0.00,VWS V13.00,2013-07-20 13:27:00,
2013-07-20 09:32:00,82.1,74.9,30.09,SSW,205,4.0,16.0,79,0.00,,SKC,0.00,VWS V13.00,2013-07-20 13:32:00,
2013-07-20 09:37:00,82.3,75.1,30.09,South,170,11.0,14.0,79,0.00,,SKC,0.00,VWS V13.00,2013-07-20 13:37:00,
2013-07-20 09:42:00,82.5,74.9,30.09,WSW,244,7.0,16.0,78,0.00,,SKC,0.00,VWS V13.00,2013-07-20 13:42:00,
2013-07-20 09:47:00,82.5,74.9,30.09,West,266,7.0,14.0,78,0.00,,SKC,0.00,VWS V13.00,2013-07-20 13:47:00,
2013-07-20 09:52:00,82.7,75.2,30.09,SW,220,11.0,15.0,78,0.00,,SKC,0.00,VWS V13.00,2013-07-20 13:52:00,
2013-07-20 09:57:00,82.8,75.2,30.09,SW,236,10.0,13.0,78,0.00,,SKC,0.00,VWS V13.00,2013-07-20 13:57:00,
2013-07-20 10:02:00,83.0,75.4,30.09,WSW,246,7.0,14.0,78,0.00,,SKC,0.00,VWS V13.00,2013-07-20 14:02:00,
2013-07-20 10:07:00,83.3,75.7,30.09,SW,236,8.0,8.0,78,0.00,,SKC,0.00,VWS V13.00,2013-07-20 14:07:00,
2013-07-20 10:12:00,83.5,75.9,30.09,WSW,254,4.0,12.0,78,0.00,,SKC,0.00,VWS V13.00,2013-07-20 14:12:00,
2013-07-20 10:17:00,83.6,76.0,30.09,SW,221,15.0,15.0,78,0.00,,SKC,0.00,VWS V13.00,2013-07-20 14:17:00,
2013-07-20 10:22:00,83.6,76.0,30.09,SSW,197,13.0,15.0,78,0.00,,SKC,0.00,VWS V13.00,2013-07-20 14:22:00,
2013-07-20 10:27:00,83.6,76.0,30.09,SSW,196,10.0,16.0,78,0.00,,SKC,0.00,VWS V13.00,2013-07-20 14:27:00,
2013-07-20 10:32:00,83.4,75.8,30.09,SW,221,5.0,16.0,78,0.00,,SKC,0.00,VWS V13.00,2013-07-20 14:32:00,
2013-07-20 10:37:00,83.6,76.0,30.09,WSW,257,3.0,14.0,78,0.00,,SKC,0.00,VWS V13.00,2013-07-20 14:37:00,
2013-07-20 10:42:00,83.8,76.2,30.09,SSW,200,9.0,14.0,78,0.00,,SKC,0.00,VWS V13.00,2013-07-20 14:42:00,
2013-07-20 10:47:00,83.9,76.3,30.09,SSW,195,6.0,16.0,78,0.00,,SKC,0.00,VWS V13.00,2013-07-20 14:47:00,
2013-07-20 10:52:00,84.1,76.5,30.09,WSW,242,11.0,14.0,78,0.00,,SKC,0.00,VWS V13.00,2013-07-20 14:52:00,
2013-07-20 10:57:00,84.2,76.2,30.09,SW,236,2.0,13.0,77,0.00,,SKC,0.00,VWS V13.00,2013-07-20 14:57:00,
2013-07-20 11:02:00,84.3,76.3,30.09,SW,217,10.0,17.0,77,0.00,,SKC,0.00,VWS V13.00,2013-07-20 15:02:00,
2013-07-20 11:07:00,84.3,76.3,30.09,SSW,212,8.0,14.0,77,0.00,,SKC,0.00,VWS V13.00,2013-07-20 15:07:00,
2013-07-20 11:12:00,84.3,76.3,30.09,South,186,9.0,14.0,77,0.00,,SKC,0.00,VWS V13.00,2013-07-20 15:12:00,
2013-07-20 11:17:00,84.3,76.3,30.09,SW,229,8.0,15.0,77,0.00,,SKC,0.00,VWS V13.00,2013-07-20 15:17:00,
2013-07-20 11:22:00,84.4,76.4,30.09,SW,215,14.0,16.0,77,0.00,,SKC,0.00,VWS V13.00,2013-07-20 15:22:00,
2013-07-20 11:27:00,84.6,76.6,30.09,SW,222,9.0,16.0,77,0.00,,SKC,0.00,VWS V13.00,2013-07-20 15:27:00,
2013-07-20 11:32:00,84.7,76.7,30.09,SW,220,12.0,14.0,77,0.00,,SKC,0.00,VWS V13.00,2013-07-20 15:32:00,
2013-07-20 11:37:00,85.0,77.0,30.09,South,187,7.0,18.0,77,0.00,,SKC,0.00,VWS V13.00,2013-07-20 15:37:00,
2013-07-20 11:42:00,85.2,76.8,30.09,SW,219,6.0,18.0,76,0.00,,SKC,0.00,VWS V13.00,2013-07-20 15:42:00,
2013-07-20 11:47:00,85.2,76.8,30.09,SSW,203,13.0,15.0,76,0.00,,SKC,0.00,VWS V13.00,2013-07-20 15:47:00,
2013-07-20 11:52:00,85.2,76.8,30.09,South,188,6.0,16.0,76,0.00,,SKC,0.00,VWS V13.00,2013-07-20 15:52:00,
2013-07-20 11:57:00,85.4,77.0,30.09,SSW,209,11.0,14.0,76,0.00,,SKC,0.00,VWS V13.00,2013-07-20 15:57:00,
2013-07-20 12:02:00,85.6,77.2,30.08,SSW,205,4.0,12.0,76,0.00,,SKC,0.00,VWS V13.00,2013-07-20 16:02:00,
2013-07-20 12:07:00,85.9,77.5,30.08,SSW,198,5.0,12.0,76,0.00,,SKC,0.00,VWS V13.00,2013-07-20 16:07:00,
2013-07-20 12:12:00,85.9,77.5,30.08,SSW,201,5.0,10.0,76,0.00,,SKC,0.00,VWS V13.00,2013-07-20 16:12:00,
2013-07-20 12:17:00,86.0,77.6,30.08,SSW,211,6.0,15.0,76,0.00,,SKC,0.00,VWS V13.00,2013-07-20 16:17:00,
2013-07-20 12:22:00,86.1,77.7,30.08,SW,218,11.0,13.0,76,0.00,,SKC,0.00,VWS V13.00,2013-07-20 16:22:00,
2013-07-20 12:27:00,86.3,77.8,30.07,SSW,198,6.0,12.0,76,0.00,,SKC,0.00,VWS V13.00,2013-07-20 16:27:00,
2013-07-20 12:32:00,86.5,78.0,30.07,SW,215,11.0,14.0,76,0.00,,SKC,0.00,VWS V13.00,2013-07-20 16:32:00,
2013-07-20 12:37:00,86.6,77.7,30.07,SW,234,10.0,14.0,75,0.00,,SKC,0.00,VWS V13.00,2013-07-20 16:37:00,
2013-07-20 12:42:00,86.5,77.6,30.07,SW,217,12.0,14.0,75,0.00,,SKC,0.00,VWS V13.00,2013-07-20 16:42:00,
2013-07-20 12:47:00,86.5,78.0,30.07,SSW,213,7.0,14.0,76,0.00,,SKC,0.00,VWS V13.00,2013-07-20 16:47:00,
2013-07-20 12:52:00,86.6,78.1,30.07,South,191,10.0,13.0,76,0.00,,SKC,0.00,VWS V13.00,2013-07-20 16:52:00,
2013-07-20 12:57:00,86.8,78.3,30.07,WSW,257,5.0,11.0,76,0.00,,SKC,0.00,VWS V13.00,2013-07-20 16:57:00,
2013-07-20 13:02:00,87.1,78.6,30.07,SW,216,8.0,14.0,76,0.00,,SKC,0.00,VWS V13.00,2013-07-20 17:02:00,
2013-07-20 13:07:00,87.2,78.3,30.07,SE,139,6.0,14.0,75,0.00,,SKC,0.00,VWS V13.00,2013-07-20 17:07:00,
2013-07-20 13:12:00,87.1,78.2,30.07,SW,229,14.0,16.0,75,0.00,,SKC,0.00,VWS V13.00,2013-07-20 17:12:00,
2013-07-20 13:17:00,87.1,78.2,30.06,SW,232,8.0,15.0,75,0.00,,SKC,0.00,VWS V13.00,2013-07-20 17:17:00,
2013-07-20 13:22:00,87.0,78.1,30.06,SW,229,5.0,16.0,75,0.00,,SKC,0.00,VWS V13.00,2013-07-20 17:22:00,
2013-07-20 13:27:00,86.8,77.9,30.06,South,173,12.0,13.0,75,0.00,,SKC,0.00,VWS V13.00,2013-07-20 17:27:00,
2013-07-20 13:32:00,86.7,77.8,30.06,South,183,10.0,16.0,75,0.00,,SKC,0.00,VWS V13.00,2013-07-20 17:32:00,
2013-07-20 13:37:00,86.7,77.8,30.06,WSW,238,8.0,18.0,75,0.00,,SKC,0.00,VWS V13.00,2013-07-20 17:37:00,
2013-07-20 13:42:00,86.8,78.3,30.06,SSW,203,5.0,16.0,76,0.00,,SKC,0.00,VWS V13.00,2013-07-20 17:42:00,
2013-07-20 13:47:00,86.7,78.2,30.05,SW,215,7.0,15.0,76,0.00,,SKC,0.00,VWS V13.00,2013-07-20 17:47:00,
2013-07-20 13:52:00,86.7,78.2,30.05,South,186,6.0,18.0,76,0.00,,SKC,0.00,VWS V13.00,2013-07-20 17:52:00,
2013-07-20 13:57:00,86.6,77.7,30.05,South,170,10.0,19.0,75,0.00,,SKC,0.00,VWS V13.00,2013-07-20 17:57:00,
2013-07-20 14:02:00,86.5,77.6,30.05,SSW,213,15.0,19.0,75,0.00,,SKC,0.00,VWS V13.00,2013-07-20 18:02:00,
2013-07-20 14:07:00,86.4,77.5,30.05,SSW,194,8.0,16.0,75,0.00,,SKC,0.00,VWS V13.00,2013-07-20 18:07:00,
2013-07-20 14:12:00,86.3,77.4,30.04,SSW,208,9.0,18.0,75,0.00,,SKC,0.00,VWS V13.00,2013-07-20 18:12:00,
2013-07-20 14:17:00,86.4,77.5,30.04,SW,217,12.0,17.0,75,0.00,,SKC,0.00,VWS V13.00,2013-07-20 18:17:00,
2013-07-20 14:22:00,86.5,77.6,30.04,SW,225,8.0,22.0,75,0.00,,SKC,0.00,VWS V13.00,2013-07-20 18:22:00,
2013-07-20 14:27:00,86.4,77.5,30.04,SSE,153,8.0,19.0,75,0.00,,SKC,0.00,VWS V13.00,2013-07-20 18:27:00,
2013-07-20 14:32:00,86.3,77.4,30.04,SSW,213,8.0,14.0,75,0.00,,SKC,0.00,VWS V13.00,2013-07-20 18:32:00,
2013-07-20 14:38:00,86.3,77.4,30.04,SSW,213,13.0,17.0,75,0.00,,SKC,0.00,VWS V13.00,2013-07-20 18:38:00,
2013-07-20 14:43:00,86.3,77.4,30.04,SW,222,14.0,17.0,75,0.00,,SKC,0.00,VWS V13.00,2013-07-20 18:43:00,
2013-07-20 14:48:00,86.2,77.3,30.03,SW,223,4.0,17.0,75,0.00,,SKC,0.00,VWS V13.00,2013-07-20 18:48:00,
2013-07-20 14:54:00,86.2,77.3,30.03,SW,215,18.0,19.0,75,0.00,,SKC,0.00,VWS V13.00,2013-07-20 18:54:00,
2013-07-20 14:59:00,86.1,77.2,30.03,SW,232,11.0,20.0,75,0.00,,SKC,0.00,VWS V13.00,2013-07-20 18:59:00,
2013-07-20 15:05:00,85.9,77.1,30.03,SSE,160,12.0,20.0,75,0.00,,SKC,0.00,VWS V13.00,2013-07-20 19:05:00,
2013-07-20 15:10:00,85.8,77.0,30.02,SSW,200,11.0,18.0,75,0.00,,SKC,0.00,VWS V13.00,2013-07-20 19:10:00,
2013-07-20 15:16:00,85.9,77.1,30.02,SSW,208,5.0,16.0,75,0.00,,SKC,0.00,VWS V13.00,2013-07-20 19:16:00,
2013-07-20 15:21:00,85.9,77.1,30.02,SSW,193,13.0,23.0,75,0.00,,SKC,0.00,VWS V13.00,2013-07-20 19:21:00,
2013-07-20 15:26:00,85.7,76.9,30.02,South,182,18.0,19.0,75,0.00,,SKC,0.00,VWS V13.00,2013-07-20 19:26:00,
2013-07-20 15:31:00,85.6,76.8,30.02,SW,227,7.0,14.0,75,0.00,,SKC,0.00,VWS V13.00,2013-07-20 19:31:00,
2013-07-20 15:36:00,85.4,76.6,30.02,SSW,209,10.0,19.0,75,0.00,,SKC,0.00,VWS V13.00,2013-07-20 19:36:00,
2013-07-20 15:42:00,85.0,76.2,30.02,SSW,207,5.0,22.0,75,0.00,,SKC,0.00,VWS V13.00,2013-07-20 19:42:00,
2013-07-20 15:47:00,84.7,75.9,30.02,SSW,204,13.0,18.0,75,0.00,,SKC,0.00,VWS V13.00,2013-07-20 19:47:00,
2013-07-20 15:52:00,84.6,75.4,30.02,SW,217,7.0,10.0,74,0.00,,SKC,0.00,VWS V13.00,2013-07-20 19:52:00,
2013-07-20 15:57:00,84.7,75.5,30.02,SW,235,10.0,10.0,74,0.00,,SKC,0.00,VWS V13.00,2013-07-20 19:57:00,
2013-07-20 16:03:00,85.0,75.8,30.02,SSW,201,9.0,15.0,74,0.00,,SKC,0.00,VWS V13.00,2013-07-20 20:03:00,
2013-07-20 16:08:00,85.2,76.0,30.01,SW,223,15.0,15.0,74,0.00,,SKC,0.00,VWS V13.00,2013-07-20 20:08:00,
2013-07-20 16:13:00,85.2,76.0,30.01,SW,225,3.0,17.0,74,0.00,,SKC,0.00,VWS V13.00,2013-07-20 20:13:00,
2013-07-20 16:19:00,85.1,75.9,30.02,SW,215,11.0,17.0,74,0.00,,SKC,0.00,VWS V13.00,2013-07-20 20:19:00,
2013-07-20 16:24:00,84.9,75.7,30.01,SSW,202,13.0,15.0,74,0.00,,SKC,0.00,VWS V13.00,2013-07-20 20:24:00,
2013-07-20 16:29:00,84.7,75.5,30.01,SSW,194,6.0,20.0,74,0.00,,SKC,0.00,VWS V13.00,2013-07-20 20:29:00,
2013-07-20 16:34:00,84.7,75.5,30.01,WSW,242,13.0,16.0,74,0.00,,SKC,0.00,VWS V13.00,2013-07-20 20:34:00,
2013-07-20 16:39:00,84.7,75.5,30.01,SW,225,6.0,17.0,74,0.00,,SKC,0.00,VWS V13.00,2013-07-20 20:39:00,
2013-07-20 16:44:00,84.9,75.7,30.01,SSW,200,10.0,18.0,74,0.00,,SKC,0.00,VWS V13.00,2013-07-20 20:44:00,
2013-07-20 16:49:00,84.9,75.7,30.01,WSW,248,5.0,17.0,74,0.00,,SKC,0.00,VWS V13.00,2013-07-20 20:49:00,
2013-07-20 16:55:00,84.9,75.7,30.01,SSW,210,7.0,17.0,74,0.00,,SKC,0.00,VWS V13.00,2013-07-20 20:55:00,
2013-07-20 17:00:00,84.9,75.7,30.01,SW,220,15.0,18.0,74,0.00,,SKC,0.00,VWS V13.00,2013-07-20 21:00:00,
2013-07-20 17:05:00,84.8,75.6,30.01,WSW,239,11.0,17.0,74,0.00,,SKC,0.00,VWS V13.00,2013-07-20 21:05:00,
2013-07-20 17:10:00,84.8,75.6,30.01,WSW,249,10.0,22.0,74,0.00,,SKC,0.00,VWS V13.00,2013-07-20 21:10:00,
2013-07-20 17:16:00,84.6,75.4,30.01,SW,217,11.0,17.0,74,0.00,,SKC,0.00,VWS V13.00,2013-07-20 21:16:00,
2013-07-20 17:21:00,84.6,75.8,30.01,SSW,195,8.0,18.0,75,0.00,,SKC,0.00,VWS V13.00,2013-07-20 21:21:00,
2013-07-20 17:26:00,84.6,75.8,30.01,SSW,213,13.0,19.0,75,0.00,,SKC,0.00,VWS V13.00,2013-07-20 21:26:00,
2013-07-20 17:31:00,84.5,75.7,30.00,SW,229,9.0,15.0,75,0.00,,SKC,0.00,VWS V13.00,2013-07-20 21:31:00,
2013-07-20 17:36:00,84.5,75.7,30.00,South,188,16.0,18.0,75,0.00,,SKC,0.00,VWS V13.00,2013-07-20 21:36:00,
2013-07-20 17:41:00,84.4,75.6,30.00,SW,221,13.0,20.0,75,0.00,,SKC,0.00,VWS V13.00,2013-07-20 21:41:00,
2013-07-20 17:46:00,84.4,75.6,30.00,SW,215,14.0,19.0,75,0.00,,SKC,0.00,VWS V13.00,2013-07-20 21:46:00,
2013-07-20 17:51:00,84.2,75.4,30.00,WSW,238,8.0,19.0,75,0.00,,SKC,0.00,VWS V13.00,2013-07-20 21:51:00,
2013-07-20 17:56:00,84.0,75.2,30.00,SW,215,13.0,25.0,75,0.00,,SKC,0.00,VWS V13.00,2013-07-20 21:56:00,
2013-07-20 18:02:00,83.8,75.0,30.00,South,184,7.0,20.0,75,0.00,,SKC,0.00,VWS V13.00,2013-07-20 22:02:00,
2013-07-20 18:07:00,83.7,74.9,30.00,South,177,10.0,20.0,75,0.00,,SKC,0.00,VWS V13.00,2013-07-20 22:07:00,
2013-07-20 18:12:00,83.4,74.7,30.00,SW,236,11.0,11.0,75,0.00,,SKC,0.00,VWS V13.00,2013-07-20 22:12:00,
2013-07-20 18:17:00,82.9,74.2,30.01,South,191,8.0,11.0,75,0.00,,SKC,0.00,VWS V13.00,2013-07-20 22:17:00,
2013-07-20 18:22:00,82.5,73.8,30.01,SW,227,15.0,15.0,75,0.00,,SKC,0.00,VWS V13.00,2013-07-20 22:22:00,
2013-07-20 18:28:00,82.3,73.6,30.01,SSW,192,15.0,16.0,75,0.00,,SKC,0.00,VWS V13.00,2013-07-20 22:28:00,
2013-07-20 18:33:00,82.2,73.9,30.01,SSW,195,13.0,19.0,76,0.00,,SKC,0.00,VWS V13.00,2013-07-20 22:33:00,
2013-07-20 18:38:00,82.1,73.8,30.01,SSW,205,18.0,19.0,76,0.00,,SKC,0.00,VWS V13.00,2013-07-20 22:38:00,
2013-07-20 18:43:00,82.0,73.3,30.01,SSW,213,12.0,20.0,75,0.00,,SKC,0.00,VWS V13.00,2013-07-20 22:43:00,
2013-07-20 18:48:00,81.8,73.5,30.01,SW,218,9.0,20.0,76,0.00,,SKC,0.00,VWS V13.00,2013-07-20 22:48:00,
2013-07-20 18:53:00,81.8,73.5,30.02,WSW,252,10.0,19.0,76,0.00,,SKC,0.00,VWS V13.00,2013-07-20 22:53:00,
2013-07-20 18:59:00,81.8,73.5,30.01,SSW,202,12.0,21.0,76,0.00,,SKC,0.00,VWS V13.00,2013-07-20 22:59:00,
2013-07-20 19:04:00,81.8,73.5,30.02,SSW,205,8.0,23.0,76,0.00,,SKC,0.00,VWS V13.00,2013-07-20 23:04:00,
2013-07-20 19:09:00,81.7,73.4,30.01,SSE,162,15.0,20.0,76,0.00,,SKC,0.00,VWS V13.00,2013-07-20 23:09:00,
2013-07-20 19:14:00,81.7,73.4,30.01,SSW,197,11.0,21.0,76,0.00,,SKC,0.00,VWS V13.00,2013-07-20 23:14:00,
2013-07-20 19:19:00,81.7,73.4,30.02,SW,223,11.0,16.0,76,0.00,,SKC,0.00,VWS V13.00,2013-07-20 23:19:00,
2013-07-20 19:24:00,81.8,73.5,30.02,SSW,194,15.0,18.0,76,0.00,,SKC,0.00,VWS V13.00,2013-07-20 23:24:00,
2013-07-20 19:29:00,81.7,73.4,30.02,SW,231,17.0,22.0,76,0.00,,SKC,0.00,VWS V13.00,2013-07-20 23:29:00,
2013-07-20 19:34:00,81.6,73.3,30.02,WSW,250,12.0,20.0,76,0.00,,SKC,0.00,VWS V13.00,2013-07-20 23:34:00,
2013-07-20 19:39:00,81.7,73.8,30.02,South,184,10.0,19.0,77,0.00,,SKC,0.00,VWS V13.00,2013-07-20 23:39:00,
2013-07-20 19:44:00,81.8,73.9,30.02,SSW,194,10.0,14.0,77,0.00,,SKC,0.00,VWS V13.00,2013-07-20 23:44:00,
2013-07-20 19:50:00,81.6,73.7,30.02,SW,226,12.0,17.0,77,0.00,,SKC,0.00,VWS V13.00,2013-07-20 23:50:00,
2013-07-20 19:55:00,81.5,73.6,30.02,SW,222,8.0,22.0,77,0.00,,SKC,0.00,VWS V13.00,2013-07-20 23:55:00,
2013-07-20 20:00:00,81.5,73.6,30.02,WSW,242,4.0,14.0,77,0.00,,SKC,0.00,VWS V13.00,2013-07-21 00:00:00,
2013-07-20 20:05:00,81.6,73.7,30.02,SSW,211,9.0,23.0,77,0.00,,SKC,0.00,VWS V13.00,2013-07-21 00:05:00,
2013-07-20 20:10:00,81.5,73.6,30.02,SSW,207,16.0,19.0,77,0.00,,SKC,0.00,VWS V13.00,2013-07-21 00:10:00,
2013-07-20 20:16:00,81.0,73.1,30.02,SSW,210,14.0,23.0,77,0.00,,SKC,0.00,VWS V13.00,2013-07-21 00:16:00,
2013-07-20 20:21:00,80.7,72.8,30.02,SW,229,9.0,22.0,77,0.00,,SKC,0.00,VWS V13.00,2013-07-21 00:21:00,
2013-07-20 20:26:00,80.6,72.7,30.02,SW,221,15.0,18.0,77,0.00,,SKC,0.00,VWS V13.00,2013-07-21 00:26:00,
2013-07-20 20:31:00,80.6,72.7,30.03,SW,215,15.0,19.0,77,0.00,,SKC,0.00,VWS V13.00,2013-07-21 00:31:00,
2013-07-20 20:36:00,80.6,72.7,30.03,SSW,208,10.0,21.0,77,0.00,,SKC,0.00,VWS V13.00,2013-07-21 00:36:00,
2013-07-20 20:41:00,80.7,72.8,30.03,West,279,10.0,15.0,77,0.00,,SKC,0.00,VWS V13.00,2013-07-21 00:41:00,
2013-07-20 20:46:00,80.8,72.9,30.03,SSW,202,9.0,18.0,77,0.00,,SKC,0.00,VWS V13.00,2013-07-21 00:46:00,
2013-07-20 20:51:00,80.8,72.9,30.03,SW,227,13.0,19.0,77,0.00,,SKC,0.00,VWS V13.00,2013-07-21 00:51:00,
2013-07-20 20:57:00,80.7,72.8,30.04,SW,227,10.0,17.0,77,0.00,,SKC,0.00,VWS V13.00,2013-07-21 00:57:00,
2013-07-20 21:02:00,80.7,72.8,30.03,SSW,198,10.0,18.0,77,0.00,,SKC,0.00,VWS V13.00,2013-07-21 01:02:00,
2013-07-20 21:07:00,80.6,72.7,30.04,SW,215,9.0,22.0,77,0.00,,SKC,0.00,VWS V13.00,2013-07-21 01:07:00,
2013-07-20 21:12:00,80.2,72.3,30.04,SSW,198,10.0,21.0,77,0.00,,SKC,0.00,VWS V13.00,2013-07-21 01:12:00,
2013-07-20 21:17:00,80.0,72.2,30.04,South,191,5.0,19.0,77,0.00,,SKC,0.00,VWS V13.00,2013-07-21 01:17:00,
2013-07-20 21:22:00,79.9,72.1,30.04,SSW,213,14.0,22.0,77,0.00,,SKC,0.00,VWS V13.00,2013-07-21 01:22:00,
2013-07-20 21:27:00,80.0,72.2,30.04,WSW,244,11.0,19.0,77,0.00,,SKC,0.00,VWS V13.00,2013-07-21 01:27:00,
2013-07-20 21:32:00,80.0,72.2,30.04,WSW,240,8.0,16.0,77,0.00,,SKC,0.00,VWS V13.00,2013-07-21 01:32:00,
2013-07-20 21:37:00,80.0,72.2,30.04,South,189,5.0,12.0,77,0.00,,SKC,0.00,VWS V13.00,2013-07-21 01:37:00,
2013-07-20 21:43:00,80.0,72.2,30.04,SW,231,6.0,14.0,77,0.00,,SKC,0.00,VWS V13.00,2013-07-21 01:43:00,
2013-07-20 21:48:00,80.0,72.2,30.05,West,267,8.0,14.0,77,0.00,,SKC,0.00,VWS V13.00,2013-07-21 01:48:00,
2013-07-20 21:53:00,80.0,72.2,30.05,South,183,6.0,15.0,77,0.00,,SKC,0.00,VWS V13.00,2013-07-21 01:53:00,
2013-07-20 21:58:00,80.0,72.2,30.05,SSW,209,4.0,12.0,77,0.00,,SKC,0.00,VWS V13.00,2013-07-21 01:58:00,
2013-07-20 22:03:00,80.0,72.2,30.05,SW,234,10.0,13.0,77,0.00,,SKC,0.00,VWS V13.00,2013-07-21 02:03:00,
2013-07-20 22:08:00,80.1,72.2,30.05,SW,225,11.0,13.0,77,0.00,,SKC,0.00,VWS V13.00,2013-07-21 02:08:00,
2013-07-20 22:13:00,80.1,72.2,30.05,SW,217,5.0,13.0,77,0.00,,SKC,0.00,VWS V13.00,2013-07-21 02:13:00,
2013-07-20 22:19:00,80.2,72.3,30.05,SW,234,14.0,14.0,77,0.00,,SKC,0.00,VWS V13.00,2013-07-21 02:19:00,
2013-07-20 22:24:00,80.0,72.2,30.05,WSW,257,7.0,15.0,77,0.00,,SKC,0.00,VWS V13.00,2013-07-21 02:24:00,
2013-07-20 22:29:00,79.6,71.8,30.05,South,169,11.0,17.0,77,0.00,,SKC,0.00,VWS V13.00,2013-07-21 02:29:00,
2013-07-20 22:34:00,79.6,71.8,30.05,SW,217,9.0,16.0,77,0.00,,SKC,0.00,VWS V13.00,2013-07-21 02:34:00,
2013-07-20 22:39:00,79.6,71.8,30.05,South,191,9.0,19.0,77,0.00,,SKC,0.00,VWS V13.00,2013-07-21 02:39:00,
2013-07-20 22:44:00,79.7,71.9,30.05,SW,220,12.0,19.0,77,0.00,,SKC,0.00,VWS V13.00,2013-07-21 02:44:00,
2013-07-20 22:50:00,79.7,71.9,30.05,SW,225,11.0,18.0,77,0.00,,SKC,0.00,VWS V13.00,2013-07-21 02:50:00,
2013-07-20 22:55:00,79.8,71.9,30.05,SSW,198,13.0,17.0,77,0.00,,SKC,0.00,VWS V13.00,2013-07-21 02:55:00,
2013-07-20 23:00:00,79.8,71.9,30.05,SW,229,8.0,17.0,77,0.00,,SKC,0.00,VWS V13.00,2013-07-21 03:00:00,
2013-07-20 23:05:00,79.8,71.9,30.05,South,177,1.0,18.0,77,0.00,,SKC,0.00,VWS V13.00,2013-07-21 03:05:00,
2013-07-20 23:10:00,79.8,71.9,30.05,West,259,11.0,15.0,77,0.00,,SKC,0.00,VWS V13.00,2013-07-21 03:10:00,
2013-07-20 23:15:00,79.8,71.9,30.05,SW,217,7.0,15.0,77,0.00,,SKC,0.00,VWS V13.00,2013-07-21 03:15:00,
2013-07-20 23:20:00,79.7,72.2,30.05,WSW,245,9.0,17.0,78,0.00,,SKC,0.00,VWS V13.00,2013-07-21 03:20:00,
2013-07-20 23:25:00,79.7,72.2,30.05,SW,225,7.0,15.0,78,0.00,,SKC,0.00,VWS V13.00,2013-07-21 03:25:00,
2013-07-20 23:30:00,79.7,72.2,30.05,SSE,151,8.0,15.0,78,0.00,,SKC,0.00,VWS V13.00,2013-07-21 03:30:00,
2013-07-20 23:36:00,79.7,72.2,30.05,West,259,8.0,16.0,78,0.00,,SKC,0.00,VWS V13.00,2013-07-21 03:36:00,
2013-07-20 23:41:00,79.6,72.1,30.05,SW,224,7.0,15.0,78,0.00,,SKC,0.00,VWS V13.00,2013-07-21 03:41:00,
2013-07-20 23:46:00,79.6,72.1,30.04,SW,217,10.0,20.0,78,0.00,,SKC,0.00,VWS V13.00,2013-07-21 03:46:00,
2013-07-20 23:51:00,79.7,72.2,30.04,South,190,10.0,18.0,78,0.00,,SKC,0.00,VWS V13.00,2013-07-21 03:51:00,
2013-07-20 23:57:00,79.7,72.2,30.04,SW,221,16.0,19.0,78,0.00,,SKC,0.00,VWS V13.00,2013-07-21 03:57:00,